Location: Altoona
(40.5167°N, 78.4000°W)
Time: 18:22:41
(UTC-04:00)

Cosmos 2333 Rocket - Pass Details

Date: 21 August 2017
Orbit: 841 x 860 km, 70.8° (Epoch: 22 September)

Event Time Altitude Azimuth Distance (km) Brightness Sun altitude
Exits shadow 23:55:02 41° 312° (NW) 1,209 3.3 -34.5°
Drops below altitude 10° 23:59:56 10° 11° (N) 2,466 5.2 -34.8°
Sets 00:02:32 0° 18° (NNE) 3,404 6.0 -35.0°
